Weather History for South Bend, IN

Change the Weather History Date:

Wednesday, February 13, 2013

  Actual Average Record
Temperature  
Mean Temperature 32 °F 27 °F  
Max Temperature 44 °F 34 °F 65 °F (1938)
Min Temperature 20 °F 20 °F -16 °F (1905)
Degree Days  
Heating Degree Days 33 38  
Month to date heating degree days 502 509  
Since 1 July heating degree days 3850 4157  
Cooling Degree Days 0 0  
Month to date cooling degree days 0 0  
Year to date cooling degree days 0 0  
Moisture  
Dew Point 24 °F    
Average Humidity 72    
Maximum Humidity 91    
Minimum Humidity 53    
Precipitation  
Precipitation 0.00 in 0.07 in 1.39 in (1946)
Month to date precipitation 0.92 0.84  
Year to date precipitation 5.92 3.13  
Snow  
Snow 0.00 in - - ()
Month to date snowfall 10.7  
Snow Depth 0.00 in    
Sea Level Pressure  
Sea Level Pressure 29.84 in    
Wind  
Wind Speed 7 mph (SSW)    
Max Wind Speed 17 mph    
Max Gust Speed 22 mph    
Visibility 9 miles    
Events      
T = Trace of Precipitation, MM = Missing Value Source: NWS Daily Summary

Daily Weather History Graph

Daily Weather History Graph

Search for Another Location

Airport:

Trip Planner

Search our weather history database for the weather conditions in past years. The results will help you decide how hot, cold, wet, or windy it might be!

Date:

Astronomy

Feb. 13, 2013 Rise Set
Actual Time 7:43 AM EST 6:16 PM EST
Civil Twilight 7:14 AM EST 6:45 PM EST
Nautical Twilight 6:41 AM EST 7:17 PM EST
Astronomical Twilight 6:09 AM EST 7:50 PM EST
Moon 9:08 AM EST (2/13) 10:23 PM EST (2/13)
Length of Visible Light 11h 30m
Length of Day
10h 33m
Waxing Crescent, 13% of the Moon is Illuminated
Feb 13
Waxing Crescent
Feb 17
First Quarter
Feb 25
Full
Mar 4
Last Quarter
Mar 11
New

Hourly Weather History & Observations

Time (EST) Temp. Windchill Dew Point Humidity Pressure Visibility Wind Dir Wind Speed Gust Speed Precip Events Conditions
12:34 AM 23.0 °F - 19.4 °F 86% 29.94 in 8.0 mi Calm Calm - N/A   Mostly Cloudy
12:54 AM 24.1 °F 19.7 °F 19.0 °F 81% 29.97 in 8.0 mi NNW 3.5 mph - N/A   Overcast
1:54 AM 26.1 °F 21.9 °F 21.0 °F 81% 29.96 in 8.0 mi SSW 3.5 mph - N/A   Overcast
2:46 AM 26.6 °F 21.2 °F 19.4 °F 74% 29.91 in 10.0 mi SSE 4.6 mph - N/A   Scattered Clouds
2:54 AM 25.0 °F 20.7 °F 19.0 °F 78% 29.94 in 10.0 mi SSE 3.5 mph - N/A   Partly Cloudy
3:54 AM 24.1 °F 19.7 °F 19.0 °F 81% 29.93 in 8.0 mi SSE 3.5 mph - N/A   Clear
4:54 AM 21.9 °F - 18.0 °F 85% 29.91 in 7.0 mi Calm Calm - N/A   Clear
5:54 AM 19.9 °F - 17.1 °F 89% 29.89 in 6.0 mi Calm Calm - N/A   Clear
6:54 AM 21.0 °F 14.6 °F 18.0 °F 88% 29.87 in 5.0 mi South 4.6 mph - N/A   Clear
7:54 AM 21.9 °F 17.2 °F 18.0 °F 85% 29.86 in 4.0 mi SSE 3.5 mph - N/A   Clear
8:54 AM 26.1 °F 19.4 °F 21.0 °F 81% 29.85 in 7.0 mi SSE 5.8 mph - N/A   Clear
9:54 AM 28.9 °F 21.1 °F 23.0 °F 78% 29.85 in 9.0 mi South 8.1 mph - N/A   Clear
10:54 AM 33.1 °F 25.5 °F 25.0 °F 72% 29.85 in 9.0 mi South 9.2 mph - N/A   Clear
11:54 AM 37.0 °F 28.5 °F 26.1 °F 65% 29.83 in 10.0 mi SSW 13.8 mph - N/A   Clear
12:54 PM 39.9 °F 32.9 °F 26.1 °F 58% 29.81 in 10.0 mi SSW 11.5 mph - N/A   Clear
1:54 PM 41.0 °F 33.5 °F 27.0 °F 57% 29.77 in 10.0 mi SW 13.8 mph - N/A   Clear
2:54 PM 43.0 °F 35.7 °F 28.0 °F 56% 29.75 in 10.0 mi SW 15.0 mph 21.9 mph N/A   Clear
3:54 PM 44.1 °F 37.1 °F 28.0 °F 53% 29.75 in 10.0 mi WSW 15.0 mph 19.6 mph N/A   Clear
4:54 PM 44.1 °F 38.6 °F 28.0 °F 53% 29.75 in 10.0 mi WSW 10.4 mph - N/A   Clear
5:54 PM 42.1 °F 37.1 °F 28.0 °F 58% 29.76 in 10.0 mi SW 8.1 mph - N/A   Clear
6:54 PM 39.0 °F 33.4 °F 28.9 °F 67% 29.78 in 10.0 mi SW 8.1 mph - N/A   Clear
7:54 PM 37.0 °F 30.4 °F 28.9 °F 73% 29.78 in 10.0 mi WSW 9.2 mph - N/A   Clear
8:54 PM 35.1 °F 29.3 °F 28.9 °F 78% 29.79 in 10.0 mi SW 6.9 mph - N/A   Clear
9:54 PM 33.1 °F 26.9 °F 28.0 °F 82% 29.80 in 10.0 mi SW 6.9 mph - N/A   Clear
10:54 PM 33.1 °F 26.9 °F 28.0 °F 82% 29.79 in 9.0 mi SW 6.9 mph - N/A   Scattered Clouds
11:54 PM 33.1 °F 26.9 °F 28.0 °F 82% 29.79 in 8.0 mi SW 6.9 mph - N/A   Scattered Clouds